EN

Hourly Weather Laczyno

Today, 26 July, Monday

Time Temperature Precipitation Wind Pressure Humidity
00:00 +19°C° 0 mm 2 mps 745 mmHg 86%
01:00 +18°C° 0 mm 3 mps 745 mmHg 88%
02:00 +18°C° 0 mm 2 mps 745 mmHg 88%
03:00 +18°C° 0 mm 2 mps 745 mmHg 88%
04:00 +18°C° 0 mm 2 mps 745 mmHg 88%
05:00 +19°C° 0 mm 3 mps 745 mmHg 80%
06:00 +21°C° 0 mm 3 mps 745 mmHg 73%
07:00 +22°C° 0 mm 3 mps 745 mmHg 65%
08:00 +23°C° 0 mm 4 mps 745 mmHg 60%
09:00 +25°C° 0 mm 4 mps 745 mmHg 55%
10:00 +26°C° 0 mm 5 mps 745 mmHg 50%
11:00 +26°C° 0 mm 5 mps 745 mmHg 50%
12:00 +27°C° 0 mm 5 mps 745 mmHg 51%
13:00 +27°C° 0 mm 5 mps 745 mmHg 52%
14:00 +27°C° 0.1 mm 5 mps 744 mmHg 54%
15:00 +27°C° 0.1 mm 5 mps 744 mmHg 56%
16:00 +27°C° 0.1 mm 4 mps 744 mmHg 57%
17:00 +26°C° 0.4 mm 4 mps 744 mmHg 65%
18:00 +24°C° 0.4 mm 3 mps 744 mmHg 73%
19:00 +23°C° 0.4 mm 2 mps 743 mmHg 81%
20:00 +21°C° 0.5 mm 2 mps 743 mmHg 85%
21:00 +20°C° 0.5 mm 2 mps 743 mmHg 90%
22:00 +20°C° 0.5 mm 3 mps 743 mmHg 94%
23:00 +19°C° 0.2 mm 2 mps 743 mmHg 95%

Tomorrow, 27 July, Tuesday

Time Temperature Precipitation Wind Pressure Humidity
00:00 +19°C° 0.2 mm 2 mps 743 mmHg 95%
01:00 +18°C° 0.2 mm 2 mps 743 mmHg 96%
02:00 +18°C° 0 mm 2 mps 743 mmHg 96%
03:00 +19°C° 0 mm 1 mps 743 mmHg 96%
04:00 +19°C° 0 mm 1 mps 743 mmHg 95%
05:00 +20°C° 0 mm 1 mps 743 mmHg 91%
06:00 +21°C° 0 mm 1 mps 743 mmHg 88%
07:00 +22°C° 0 mm 1 mps 743 mmHg 84%
08:00 +24°C° 0.3 mm 1 mps 743 mmHg 76%
09:00 +25°C° 0.3 mm 2 mps 743 mmHg 69%
10:00 +27°C° 0.3 mm 2 mps 743 mmHg 61%
11:00 +28°C° 0.2 mm 3 mps 743 mmHg 56%
12:00 +29°C° 0.2 mm 3 mps 743 mmHg 51%
13:00 +29°C° 0.2 mm 3 mps 743 mmHg 47%
14:00 +28°C° 0.4 mm 3 mps 743 mmHg 53%
15:00 +27°C° 0.4 mm 3 mps 743 mmHg 59%
16:00 +25°C° 0.4 mm 3 mps 743 mmHg 66%
17:00 +25°C° 0.3 mm 3 mps 743 mmHg 68%
18:00 +24°C° 0.3 mm 2 mps 743 mmHg 71%
19:00 +23°C° 0.3 mm 2 mps 743 mmHg 74%
20:00 +22°C° 0.1 mm 1 mps 744 mmHg 76%
21:00 +21°C° 0.1 mm 1 mps 744 mmHg 79%
22:00 +20°C° 0.1 mm 1 mps 744 mmHg 82%
23:00 +20°C° 0.1 mm 1 mps 744 mmHg 82%

Day after tomorrow, 28 July, Wednesday

Time Temperature Precipitation Wind Pressure Humidity
00:00 +20°C° 0.1 mm 1 mps 744 mmHg 83%
01:00 +19°C° 0.1 mm 1 mps 744 mmHg 84%
02:00 +18°C° 0 mm 2 mps 744 mmHg 86%
03:00 +18°C° 0 mm 2 mps 744 mmHg 88%
04:00 +18°C° 0 mm 2 mps 743 mmHg 91%
05:00 +19°C° 0 mm 3 mps 743 mmHg 84%
06:00 +20°C° 0 mm 3 mps 744 mmHg 78%
07:00 +22°C° 0 mm 3 mps 744 mmHg 72%
08:00 +23°C° 0 mm 4 mps 744 mmHg 64%
09:00 +26°C° 0 mm 4 mps 744 mmHg 55%
10:00 +27°C° 0 mm 4 mps 744 mmHg 47%
11:00 +27°C° 0 mm 4 mps 744 mmHg 45%
12:00 +27°C° 0 mm 4 mps 744 mmHg 44%
13:00 +27°C° 0 mm 3 mps 743 mmHg 42%
14:00 +26°C° 0 mm 3 mps 744 mmHg 46%
15:00 +26°C° 0 mm 3 mps 744 mmHg 50%
16:00 +25°C° 0 mm 2 mps 744 mmHg 54%
17:00 +24°C° 0 mm 2 mps 744 mmHg 57%
18:00 +23°C° 0 mm 2 mps 744 mmHg 61%
19:00 +23°C° 0 mm 2 mps 744 mmHg 64%
20:00 +22°C° 0 mm 1 mps 744 mmHg 67%
21:00 +21°C° 0 mm 1 mps 744 mmHg 70%
22:00 +20°C° 0 mm 1 mps 744 mmHg 72%
23:00 +19°C° 0 mm 1 mps 744 mmHg 75%

29 July, Thursday

Time Temperature Precipitation Wind Pressure Humidity
00:00 +19°C° 0 mm 1 mps 744 mmHg 77%
01:00 +19°C° 0 mm 1 mps 744 mmHg 79%
02:00 +17°C° 0 mm 2 mps 744 mmHg 82%
03:00 +17°C° 0 mm 2 mps 744 mmHg 85%
04:00 +16°C° 0 mm 2 mps 744 mmHg 88%
05:00 +18°C° 0 mm 3 mps 744 mmHg 82%
06:00 +19°C° 0 mm 3 mps 744 mmHg 76%
07:00 +21°C° 0 mm 4 mps 744 mmHg 70%
08:00 +22°C° 0 mm 4 mps 744 mmHg 63%
09:00 +25°C° 0 mm 4 mps 744 mmHg 56%
10:00 +26°C° 0 mm 5 mps 744 mmHg 49%
11:00 +27°C° 0 mm 4 mps 744 mmHg 46%
12:00 +27°C° 0 mm 4 mps 743 mmHg 43%
13:00 +28°C° 0 mm 4 mps 743 mmHg 39%
14:00 +27°C° 0 mm 4 mps 743 mmHg 43%
15:00 +26°C° 0 mm 3 mps 743 mmHg 47%
16:00 +25°C° 0 mm 3 mps 743 mmHg 51%
17:00 +25°C° 0 mm 2 mps 743 mmHg 56%
18:00 +24°C° 0 mm 2 mps 743 mmHg 61%
19:00 +23°C° 0 mm 1 mps 743 mmHg 66%
20:00 +22°C° 0 mm 1 mps 742 mmHg 70%
21:00 +21°C° 0 mm 1 mps 742 mmHg 74%
22:00 +20°C° 0 mm 1 mps 742 mmHg 78%
23:00 +19°C° 0 mm 1 mps 742 mmHg 80%

30 July, Friday

Time Temperature Precipitation Wind Pressure Humidity
00:00 +18°C° 0 mm 2 mps 741 mmHg 81%
01:00 +17°C° 0 mm 2 mps 741 mmHg 82%
02:00 +17°C° 0 mm 2 mps 741 mmHg 81%
03:00 +18°C° 0 mm 3 mps 740 mmHg 79%
04:00 +18°C° 0 mm 3 mps 740 mmHg 78%
05:00 +18°C° 0.2 mm 3 mps 740 mmHg 79%
06:00 +19°C° 0.2 mm 3 mps 740 mmHg 80%
07:00 +19°C° 0.2 mm 4 mps 740 mmHg 81%
08:00 +21°C° 0.1 mm 4 mps 739 mmHg 73%
09:00 +23°C° 0.1 mm 4 mps 739 mmHg 66%
10:00 +25°C° 0.1 mm 4 mps 739 mmHg 58%
11:00 +26°C° 0 mm 4 mps 739 mmHg 52%
12:00 +27°C° 0 mm 4 mps 739 mmHg 46%
13:00 +28°C° 0 mm 5 mps 738 mmHg 39%
14:00 +27°C° 0 mm 4 mps 738 mmHg 42%
15:00 +26°C° 0 mm 4 mps 738 mmHg 44%
16:00 +25°C° 0 mm 3 mps 738 mmHg 47%
17:00 +24°C° 0 mm 3 mps 738 mmHg 50%
18:00 +23°C° 0 mm 4 mps 738 mmHg 52%
19:00 +22°C° 0 mm 4 mps 738 mmHg 55%
20:00 +21°C° 0 mm 4 mps 738 mmHg 55%
21:00 +21°C° 0 mm 4 mps 737 mmHg 55%
22:00 +21°C° 0 mm 4 mps 737 mmHg 56%
23:00 +20°C° 0 mm 4 mps 737 mmHg 58%

31 July, Saturday

Time Temperature Precipitation Wind Pressure Humidity
00:00 +19°C° 0 mm 5 mps 737 mmHg 60%
01:00 +17°C° 0 mm 5 mps 737 mmHg 63%
02:00 +16°C° 0 mm 5 mps 738 mmHg 66%
03:00 +15°C° 0 mm 6 mps 738 mmHg 70%
04:00 +15°C° 0 mm 6 mps 738 mmHg 73%
05:00 +15°C° 0 mm 6 mps 738 mmHg 70%
06:00 +16°C° 0 mm 7 mps 738 mmHg 68%
07:00 +16°C° 0 mm 7 mps 738 mmHg 65%
08:00 +17°C° 0 mm 7 mps 739 mmHg 63%
09:00 +17°C° 0 mm 7 mps 739 mmHg 61%
10:00 +18°C° 0 mm 7 mps 739 mmHg 59%
11:00 +18°C° 0.1 mm 7 mps 739 mmHg 56%
12:00 +20°C° 0.1 mm 7 mps 740 mmHg 53%
13:00 +21°C° 0.1 mm 7 mps 740 mmHg 49%
14:00 +21°C° 0 mm 7 mps 740 mmHg 47%
15:00 +22°C° 0 mm 6 mps 740 mmHg 45%
16:00 +22°C° 0 mm 6 mps 740 mmHg 43%
17:00 +21°C° 0 mm 5 mps 740 mmHg 45%
18:00 +20°C° 0 mm 4 mps 740 mmHg 48%
19:00 +19°C° 0 mm 2 mps 740 mmHg 51%
20:00 +18°C° 0 mm 3 mps 740 mmHg 57%
21:00 +17°C° 0 mm 3 mps 740 mmHg 62%
22:00 +16°C° 0 mm 3 mps 740 mmHg 68%
23:00 +16°C° 0 mm 3 mps 740 mmHg 73%
Show more